DELTA 1 DEB, 21341

Orbit data source: Space-Track

DELTA 1 DEB, 21341 is space debris in SSO originally from a launch on Thu, 12 Jun 1975 UTC launched from the Air Force Western Test Range (AFWTR). Debris objects in space refer to the collection of defunct objects orbiting the Earth. Examples of debris include non-operational satellites, rocket bodies, and fragments generated from explosions, collisions, or faulty payload assembly.

Loading next visibility...
Identifier
21341, 1975-052BK
Orbit
SSO
Country
Flag of USUS
Related business
Manufacturer
Unknown
Mission
Spacecraft
Bus & Motor
Unknown
Mass
Unknown
Launch date (UTC)
1975-06-12 (50 years ago)
Launch vehicle
Unknown
Launch site
Air Force Western Test Range (AFWTR)
Object type
Payload
Rocket body
Debris
Shape & HBR
Unknown shape, 0.2 m
Radar Cross Section
Medium (>0.1 m² and <1 m²)

Expand to show TLE details & history
Last TLE update: 20 hours ago

TLE from 20 hours ago
0 DELTA 1 DEB
1 21341U 75052BK  25290.98921419  .00000137  00000-0  63089-3 0  9991
2 21341  99.7661  12.3872 0499414 199.0621 345.0128 12.58264456579369
Epoch: 2025-10-17T23:44Z
TLE epoch observation values (Epoch: 2025-10-17T23:44:28.106Z)
Latitude
-2.58938°
Longitude
169.09974°
Altitude
1,057.808 km
Speed
7.497 km/s
True Right ascension
12h 47m 46s
True Declination
-2° 34' 28"
Sunlit
Object was in daylight at epoch
Visualization orbit readout
Latitude
Unknown
Longitude
Unknown
Altitude
Unknown
Speed
Unknown
Apparent Right ascension
Unknown
Apparent Declination
Unknown
Sunlit
N/A
Visualization observer readout
Local Sidereal Time
14:24:05
Azimuth
Unknown
Elevation
Unknown
Doppler factor
Unknown
Orbital elements
Apogee altitude
1,817.361 km
Perigee altitude
1,037.709 km
Semi-major axis
7,805.672 km
Eccentricity
0.04994
Inclination
99.7661°
RAAN
12.3872°
Arg. of periapsis
199.0621°
True anomaly
343.43834°
Mean anomaly
345.0128°
Eccentric anomaly
344.23539°
Mean motion
3.14722 °/min
Orbital period
114.39 mins
BSTAR
0.00063089
Loading maneuver chart data...
Computing Atmospheric mass density...

Documentation

Showing up to 5 results
|